| time (UTC) | temp F | wind direction | speed MPH | gust MPH | rain 1hr in | rain 24hr in | rain mn in | humidity % | barometer mb |
| 20260901203659 | 96 | 81 | 6.0 | 10.0 | 0.00 | 0.00 | 0.00 | 1013.6 | |
| 20260901203132 | 96 | 136 | 6.0 | 10.0 | 0.00 | 0.00 | 0.00 | 1013.7 | |
| 20260901202709 | 97 | 132 | 6.0 | 10.0 | 0.00 | 0.00 | 0.00 | 1013.8 | |
| 20260901202218 | 97 | 132 | 4.0 | 7.0 | 0.00 | 0.00 | 0.00 | 1013.8 | |
| 20260901201631 | 96 | 70 | 1.0 | 12.0 | 0.00 | 0.00 | 0.00 | 1013.9 | |
| 20260901201201 | 96 | 135 | 5.0 | 12.0 | 0.00 | 0.00 | 0.00 | 1014.0 | |
| 20260901200704 | 96 | 49 | 6.0 | 9.0 | 0.00 | 0.00 | 0.00 | 1014.0 | |
| 20260901200138 | 96 | 78 | 2.0 | 10.0 | 0.00 | 0.00 | 0.00 | 1014.2 | |
| 20260901195705 | 96 | 26 | 4.0 | 10.0 | 0.00 | 0.00 | 0.00 | 1014.2 | |
| 20260901195142 | 95 | 163 | 5.0 | 10.0 | 0.00 | 0.00 | 0.00 | 1014.3 | |
| 20260901194616 | 95 | 144 | 6.0 | 10.0 | 0.00 | 0.00 | 0.00 | 1014.3 | |
| 20260901194151 | 95 | 202 | 2.0 | 11.0 | 0.00 | 0.00 | 0.00 | 1014.3 | |
| 20260901193621 | 95 | 153 | 8.0 | 11.0 | 0.00 | 0.00 | 0.00 | 1014.5 | |
| 20260901193157 | 95 | 145 | 3.0 | 11.0 | 0.00 | 0.00 | 0.00 | 1014.4 | |
| 20260901192626 | 95 | 192 | 4.0 | 9.0 | 0.00 | 0.00 | 0.00 | 1014.5 | |
| 20260901192155 | 95 | 30 | 3.0 | 11.0 | 0.00 | 0.00 | 0.00 | 1014.6 | |
| 20260901191632 | 94 | 125 | 7.0 | 11.0 | 0.00 | 0.00 | 0.00 | 1014.6 | |
| 20260901191201 | 95 | 155 | 4.0 | 10.0 | 0.00 | 0.00 | 0.00 | 1014.7 | |
| 20260901190614 | 95 | 73 | 5.0 | 9.0 | 0.00 | 0.00 | 0.00 | 1014.8 | |
| 20260901190143 | 95 | 170 | 4.0 | 7.0 | 0.00 | 0.00 | 0.00 | 1014.8 | |
| 20260901185624 | 94 | 205 | 2.0 | 10.0 | 0.00 | 0.00 | 0.00 | 1014.9 | |
| 20260901185153 | 94 | 103 | 6.0 | 9.0 | 0.00 | 0.00 | 0.00 | 1015.0 | |
| 20260901184708 | 94 | 65 | 6.0 | 9.0 | 0.00 | 0.00 | 0.00 | 1015.1 | |
| 20260901184138 | 94 | 55 | 5.0 | 10.0 | 0.00 | 0.00 | 0.00 | 1015.2 | |
| 20260901183713 | 94 | 156 | 6.0 | 10.0 | 0.00 | 0.00 | 0.00 | 1015.3 | |
| 20260901183140 | 94 | 127 | 1.0 | 10.0 | 0.00 | 0.00 | 0.00 | 1015.3 | |
| 20260901182655 | 94 | 85 | 4.0 | 9.0 | 0.00 | 0.00 | 0.00 | 1015.3 | |
| 20260901182118 | 94 | 129 | 3.0 | 11.0 | 0.00 | 0.00 | 0.00 | 1015.5 | |
| 20260901181635 | 93 | 106 | 4.0 | 12.0 | 0.00 | 0.00 | 0.00 | 1015.6 | |
| 20260901181202 | 93 | 106 | 6.0 | 12.0 | 0.00 | 0.00 | 0.00 | 1015.6 | |
| 20260901180653 | 93 | 78 | 2.0 | 9.0 | 0.00 | 0.00 | 0.00 | 1015.8 | |
| 20260901180122 | 93 | 59 | 6.0 | 9.0 | 0.00 | 0.00 | 0.00 | 1015.9 | |
| 20260901175658 | 93 | 117 | 5.0 | 10.0 | 0.00 | 0.00 | 0.00 | 1015.9 | |
| 20260901175124 | 92 | 135 | 6.0 | 13.0 | 0.00 | 0.00 | 0.00 | 1016.0 | |
| 20260901174653 | 92 | 123 | 6.0 | 13.0 | 0.00 | 0.00 | 0.00 | 1016.1 | |
| 20260901174130 | 92 | 80 | 6.0 | 9.0 | 0.00 | 0.00 | 0.00 | 1016.1 | |
| 20260901173635 | 92 | 94 | 5.0 | 10.0 | 0.00 | 0.00 | 0.00 | 1016.3 | |
| 20260901173148 | 92 | 81 | 6.0 | 12.0 | 0.00 | 0.00 | 0.00 | 1016.4 | |
| 20260901172715 | 92 | 103 | 6.0 | 12.0 | 0.00 | 0.00 | 0.00 | 1016.4 | |
| 20260901172129 | 92 | 66 | 5.0 | 8.0 | 0.00 | 0.00 | 0.00 | 1016.4 | |
| 20260901171655 | 92 | 333 | 0.0 | 10.0 | 0.00 | 0.00 | 0.00 | 1016.5 | |
| 20260901171114 | 92 | 122 | 4.0 | 11.0 | 0.00 | 0.00 | 0.00 | 1016.6 | |
| 20260901170641 | 92 | 155 | 7.0 | 11.0 | 0.00 | 0.00 | 0.00 | 1016.7 | |
| 20260901170217 | 92 | 46 | 4.0 | 10.0 | 0.00 | 0.00 | 0.00 | 1016.6 | |
| 20260901165621 | 91 | 160 | 4.0 | 7.0 | 0.00 | 0.00 | 0.00 | 1016.6 | |
| 20260901165130 | 91 | 109 | 4.0 | 7.0 | 0.00 | 0.00 | 0.00 | 1016.6 | |
| 20260901164639 | 91 | 138 | 4.0 | 10.0 | 0.00 | 0.00 | 0.00 | 1016.7 | |
| 20260901164209 | 90 | 136 | 4.0 | 10.0 | 0.00 | 0.00 | 0.00 | 1016.7 | |
| 20260901163637 | 89 | 77 | 3.0 | 8.0 | 0.00 | 0.00 | 0.00 | 1016.7 | |
| 20260901163151 | 89 | 113 | 4.0 | 11.0 | 0.00 | 0.00 | 0.00 | 1016.8 | |
| 20260901162657 | 90 | 65 | 7.0 | 11.0 | 0.00 | 0.00 | 0.00 | 1016.8 | |
| 20260901162211 | 90 | 173 | 4.0 | 7.0 | 0.00 | 0.00 | 0.00 | 1016.9 | |
| 20260901161616 | 89 | 134 | 1.0 | 10.0 | 0.00 | 0.00 | 0.00 | 1017.0 | |
| 20260901161153 | 89 | 94 | 4.0 | 10.0 | 0.00 | 0.00 | 0.00 | 1017.0 | |
| 20260901160627 | 89 | 317 | 1.0 | 6.0 | 0.00 | 0.00 | 0.00 | 1017.0 | |
| 20260901160202 | 89 | 126 | 4.0 | 8.0 | 0.00 | 0.00 | 0.00 | 1017.0 | |
| 20260901155632 | 88 | 102 | 3.0 | 8.0 | 0.00 | 0.00 | 0.00 | 1016.9 | |
| 20260901155206 | 87 | 152 | 2.0 | 6.0 | 0.00 | 0.00 | 0.00 | 1016.9 | |
| 20260901154630 | 87 | 269 | 2.0 | 7.0 | 0.00 | 0.00 | 0.00 | 1016.8 | |
| 20260901154204 | 87 | 118 | 4.0 | 8.0 | 0.00 | 0.00 | 0.00 | 1016.9 | |
| 20260901153633 | 87 | 42 | 5.0 | 8.0 | 0.00 | 0.00 | 0.00 | 1017.0 | |
| 20260901153203 | 86 | 106 | 4.0 | 7.0 | 0.00 | 0.00 | 0.00 | 1017.0 | |
| 20260901152623 | 86 | 43 | 4.0 | 6.0 | 0.00 | 0.00 | 0.00 | 1016.9 | |
| 20260901152208 | 86 | 96 | 3.0 | 6.0 | 0.00 | 0.00 | 0.00 | 1016.9 | |
| 20260901151635 | 86 | 91 | 2.0 | 6.0 | 0.00 | 0.00 | 0.00 | 1017.0 | |
| 20260901151204 | 85 | 190 | 1.0 | 5.0 | 0.00 | 0.00 | 0.00 | 1017.0 | |
| 20260901150619 | 85 | 106 | 3.0 | 5.0 | 0.00 | 0.00 | 0.00 | 1017.0 | |
| 20260901150149 | 84 | 150 | 2.0 | 5.0 | 0.00 | 0.00 | 0.00 | 1017.0 | |
| 20260901145649 | 84 | 275 | 3.0 | 5.0 | 0.00 | 0.00 | 0.00 | 1017.0 | |
| 20260901145125 | 83 | 67 | 1.0 | 5.0 | 0.00 | 0.00 | 0.00 | 1017.0 | |
| 20260901144654 | 83 | 313 | 0.0 | 5.0 | 0.00 | 0.00 | 0.00 | 1017.0 | |
| 20260901144122 | 82 | 173 | 0.0 | 5.0 | 0.00 | 0.00 | 0.00 | 1016.9 | |
| 20260901143637 | 81 | 191 | 0.0 | 4.0 | 0.00 | 0.00 | 0.00 | 1016.9 | |
| 20260901143214 | 81 | 103 | 1.0 | 4.0 | 0.00 | 0.00 | 0.00 | 1016.9 | |
| 20260901142650 | 80 | 225 | 0.0 | 6.0 | 0.00 | 0.00 | 0.00 | 1016.9 | |
| 20260901142123 | 80 | 233 | 2.0 | 6.0 | 0.00 | 0.00 | 0.00 | 1017.0 | |
| 20260901141700 | 79 | 148 | 0.0 | 2.0 | 0.00 | 0.00 | 0.00 | 1016.9 | |
| 20260901141129 | 79 | 121 | 0.0 | 0.0 | 0.00 | 0.00 | 0.00 | 1016.9 | |
| 20260901140704 | 78 | 316 | 0.0 | 0.0 | 0.00 | 0.00 | 0.00 | 1017.0 | |
| 20260901140131 | 78 | 316 | 0.0 | 0.0 | 0.00 | 0.00 | 0.00 | 1017.0 | |
| 20260901135633 | 77 | 274 | 0.0 | 0.0 | 0.00 | 0.00 | 0.00 | 1017.0 | |
| 20260901135208 | 77 | 274 | 0.0 | 0.0 | 0.00 | 0.00 | 0.00 | 1017.1 | |
| 20260901134636 | 76 | 34 | 0.0 | 0.0 | 0.00 | 0.00 | 0.00 | 1017.1 | |
| 20260901134150 | 76 | 105 | 0.0 | 0.0 | 0.00 | 0.00 | 0.00 | 1017.0 | |
| 20260901133623 | 75 | 105 | 0.0 | 0.0 | 0.00 | 0.00 | 0.00 | 1016.9 | |
| 20260901133200 | 75 | 105 | 0.0 | 0.0 | 0.00 | 0.00 | 0.00 | 1016.9 | |
| 20260901132629 | 74 | 105 | 0.0 | 0.0 | 0.00 | 0.00 | 0.00 | 1016.9 | |
| 20260901132158 | 74 | 105 | 0.0 | 0.0 | 0.00 | 0.00 | 0.00 | 1016.9 | |
| 20260901131634 | 74 | 105 | 0.0 | 0.0 | 0.00 | 0.00 | 0.00 | 1016.9 | |
| 20260901131152 | 73 | 105 | 0.0 | 0.0 | 0.00 | 0.00 | 0.00 | 1016.9 | |
| 20260901130708 | 73 | 105 | 0.0 | 0.0 | 0.00 | 0.00 | 0.00 | 1016.8 | |
| 20260901130115 | 73 | 105 | 0.0 | 0.0 | 0.00 | 0.00 | 0.00 | 1016.8 | |
| 20260901125642 | 73 | 105 | 0.0 | 0.0 | 0.00 | 0.00 | 0.00 | 1016.7 | |
| 20260901125117 | 72 | 105 | 0.0 | 0.0 | 0.00 | 0.00 | 0.00 | 1016.6 | |
| 20260901124644 | 73 | 106 | 0.0 | 0.0 | 0.00 | 0.00 | 0.00 | 1016.5 | |
| 20260901124154 | 73 | 106 | 0.0 | 0.0 | 0.00 | 0.00 | 0.00 | 1016.5 | |
| 20260901123627 | 72 | 105 | 0.0 | 1.0 | 0.00 | 0.00 | 0.00 | 1016.4 | |
| 20260901123204 | 72 | 106 | 1.0 | 1.0 | 0.00 | 0.00 | 0.00 | 1016.4 | |
| 20260901122713 | 72 | 106 | 0.0 | 1.0 | 0.00 | 0.00 | 0.00 | 1016.4 | |
| 20260901122228 | 72 | 105 | 0.0 | 1.0 | 0.00 | 0.00 | 0.00 | 1016.3 | |
| 20260901121634 | 73 | 106 | 0.0 | 1.0 | 0.00 | 0.00 | 0.00 | 1016.3 | |
| 20260901121150 | 73 | 105 | 0.0 | 4.0 | 0.00 | 0.00 | 0.00 | 1016.3 | |
| 20260901120720 | 73 | 105 | 1.0 | 4.0 | 0.00 | 0.00 | 0.00 | 1016.2 | |
| 20260901120135 | 73 | 106 | 0.0 | 0.0 | 0.00 | 0.00 | 0.00 | 1016.2 | |
| 20260901115643 | 73 | 105 | 0.0 | 0.0 | 0.00 | 0.00 | 0.00 | 1016.2 | |
| 20260901115121 | 73 | 105 | 0.0 | 0.0 | 0.00 | 0.00 | 0.00 | 1016.2 | |
| 20260901114647 | 73 | 106 | 0.0 | 0.0 | 0.00 | 0.00 | 0.00 | 1016.3 | |
| 20260901114120 | 73 | 106 | 0.0 | 0.0 | 0.00 | 0.00 | 0.00 | 1016.3 | |
| 20260901113656 | 73 | 106 | 0.0 | 0.0 | 0.00 | 0.00 | 0.00 | 1016.4 | |
| 20260901113125 | 73 | 106 | 0.0 | 0.0 | 0.00 | 0.00 | 0.00 | 1016.4 | |
| 20260901112702 | 73 | 106 | 0.0 | 0.0 | 0.00 | 0.00 | 0.00 | 1016.4 | |
| 20260901112130 | 73 | 105 | 0.0 | 0.0 | 0.00 | 0.00 | 0.00 | 1016.5 | |
| 20260901111639 | 73 | 106 | 0.0 | 0.0 | 0.00 | 0.00 | 0.00 | 1016.4 | |
| 20260901111114 | 73 | 105 | 0.0 | 0.0 | 0.00 | 0.00 | 0.00 | 1016.4 | |
| 20260901110643 | 73 | 106 | 0.0 | 0.0 | 0.00 | 0.00 | 0.00 | 1016.4 | |
| 20260901110220 | 73 | 106 | 0.0 | 0.0 | 0.00 | 0.00 | 0.00 | 1016.3 | |
| 20260901105632 | 74 | 105 | 0.0 | 0.0 | 0.00 | 0.00 | 0.00 | 1016.4 | |
| 20260901105208 | 74 | 105 | 0.0 | 0.0 | 0.00 | 0.00 | 0.00 | 1016.3 | |
| 20260901104638 | 74 | 106 | 0.0 | 0.0 | 0.00 | 0.00 | 0.00 | 1016.4 | |
| 20260901104145 | 74 | 105 | 0.0 | 0.0 | 0.00 | 0.00 | 0.00 | 1016.3 | |
| 20260901103622 | 74 | 105 | 0.0 | 0.0 | 0.00 | 0.00 | 0.00 | 1016.4 | |
| 20260901103152 | 74 | 105 | 0.0 | 0.0 | 0.00 | 0.00 | 0.00 | 1016.4 | |
| 20260901102620 | 74 | 106 | 0.0 | 0.0 | 0.00 | 0.00 | 0.00 | 1016.3 | |
| 20260901102157 | 74 | 105 | 0.0 | 0.0 | 0.00 | 0.00 | 0.00 | 1016.3 | |
| 20260901101630 | 74 | 106 | 0.0 | 0.0 | 0.00 | 0.00 | 0.00 | 1016.1 | |
| 20260901101202 | 74 | 105 | 0.0 | 0.0 | 0.00 | 0.00 | 0.00 | 1016.1 | |
| 20260901100632 | 75 | 106 | 0.0 | 0.0 | 0.00 | 0.00 | 0.00 | 1016.1 | |
| 20260901100141 | 75 | 106 | 0.0 | 0.0 | 0.00 | 0.00 | 0.00 | 1016.1 | |
| 20260901095618 | 75 | 105 | 0.0 | 0.0 | 0.00 | 0.00 | 0.00 | 1016.1 | |
| 20260901095127 | 75 | 105 | 0.0 | 0.0 | 0.00 | 0.00 | 0.00 | 1016.1 | |
| 20260901094700 | 75 | 105 | 0.0 | 0.0 | 0.00 | 0.00 | 0.00 | 1016.1 | |
| 20260901094229 | 75 | 105 | 0.0 | 0.0 | 0.00 | 0.00 | 0.00 | 1016.0 | |
| 20260901093644 | 75 | 105 | 0.0 | 0.0 | 0.00 | 0.00 | 0.00 | 1016.1 | |
| 20260901093210 | 76 | 105 | 0.0 | 0.0 | 0.00 | 0.00 | 0.00 | 1016.1 | |
| 20260901092630 | 76 | 105 | 0.0 | 0.0 | 0.00 | 0.00 | 0.00 | 1016.2 | |
| 20260901092149 | 76 | 105 | 0.0 | 0.0 | 0.00 | 0.00 | 0.00 | 1016.3 | |
| 20260901091618 | 76 | 105 | 0.0 | 0.0 | 0.00 | 0.00 | 0.00 | 1016.4 | |
| 20260901091154 | 77 | 105 | 0.0 | 0.0 | 0.00 | 0.00 | 0.00 | 1016.4 | |
| 20260901090623 | 77 | 105 | 0.0 | 0.0 | 0.00 | 0.00 | 0.00 | 1016.4 | |
| 20260901090200 | 77 | 105 | 0.0 | 0.0 | 0.00 | 0.00 | 0.00 | 1016.4 | |
| 20260901085649 | 77 | 106 | 0.0 | 0.0 | 0.00 | 0.00 | 0.00 | 1016.5 | |
| 20260901085117 | 77 | 106 | 0.0 | 0.0 | 0.00 | 0.00 | 0.00 | 1016.5 | |
| 20260901084634 | 77 | 106 | 0.0 | 0.0 | 0.00 | 0.00 | 0.00 | 1016.6 | |
| 20260901084201 | 77 | 106 | 0.0 | 0.0 | 0.00 | 0.00 | 0.00 | 1016.5 | |
| 20260901083619 | 78 | 106 | 0.0 | 0.0 | 0.00 | 0.00 | 0.00 | 1016.4 | |
| 20260901083148 | 78 | 106 | 0.0 | 0.0 | 0.00 | 0.00 | 0.00 | 1016.4 | |
| 20260901082703 | 78 | 106 | 0.0 | 0.0 | 0.00 | 0.00 | 0.00 | 1016.3 | |
| 20260901082133 | 78 | 106 | 0.0 | 0.0 | 0.00 | 0.00 | 0.00 | 1016.4 | |
| 20260901081706 | 78 | 106 | 0.0 | 0.0 | 0.00 | 0.00 | 0.00 | 1016.3 | |
| 20260901081133 | 78 | 106 | 0.0 | 2.0 | 0.00 | 0.00 | 0.00 | 1016.3 | |
| 20260901080658 | 78 | 106 | 0.0 | 2.0 | 0.00 | 0.00 | 0.00 | 1016.4 | |
| 20260901080135 | 78 | 169 | 0.0 | 2.0 | 0.00 | 0.00 | 0.00 | 1016.2 | |
| 20260901075618 | 79 | 123 | 2.0 | 5.0 | 0.00 | 0.00 | 0.00 | 1016.2 | |
| 20260901074632 | 79 | 114 | 3.0 | 5.0 | 0.00 | 0.00 | 0.00 | 1016.1 | |
| 20260901074159 | 79 | 130 | 2.0 | 5.0 | 0.00 | 0.00 | 0.00 | 1016.2 | |
| 20260901073637 | 79 | 118 | 2.0 | 5.0 | 0.00 | 0.00 | 0.00 | 1016.3 | |
| 20260901073140 | 79 | 133 | 3.0 | 5.0 | 0.00 | 0.00 | 0.00 | 1016.3 | |
| 20260901072709 | 79 | 130 | 2.0 | 5.0 | 0.00 | 0.00 | 0.00 | 1016.3 | |
| 20260901072145 | 79 | 150 | 2.0 | 5.0 | 0.00 | 0.00 | 0.00 | 1016.3 | |
| 20260901071616 | 79 | 133 | 1.0 | 4.0 | 0.00 | 0.00 | 0.00 | 1016.2 | |
| 20260901071151 | 79 | 143 | 1.0 | 5.0 | 0.00 | 0.00 | 0.00 | 1016.2 | |
| 20260901070654 | 80 | 133 | 2.0 | 5.0 | 0.00 | 0.00 | 0.00 | 1016.1 | |
| 20260901070120 | 80 | 105 | 2.0 | 5.0 | 0.00 | 0.00 | 0.00 | 1016.1 | |
| 20260901065626 | 80 | 101 | 1.0 | 5.0 | 0.00 | 0.00 | 0.00 | 1016.0 | |
| 20260901065118 | 80 | 129 | 2.0 | 6.0 | 0.00 | 0.00 | 0.00 | 1016.1 | |
| 20260901064625 | 80 | 148 | 3.0 | 6.0 | 0.00 | 0.00 | 0.00 | 1016.1 | |
| 20260901064126 | 81 | 133 | 2.0 | 5.0 | 0.00 | 0.00 | 0.00 | 1016.0 | |
| 20260901063634 | 81 | 140 | 1.0 | 2.0 | 0.00 | 0.00 | 0.00 | 1016.0 | |
| 20260901063136 | 81 | 140 | 1.0 | 5.0 | 0.00 | 0.00 | 0.00 | 1016.1 | |
| 20260901062623 | 81 | 140 | 2.0 | 5.0 | 0.00 | 0.00 | 0.00 | 1016.1 | |
| 20260901062116 | 81 | 92 | 1.0 | 4.0 | 0.00 | 0.00 | 0.00 | 1016.1 | |
| 20260901061619 | 81 | 92 | 2.0 | 4.0 | 0.00 | 0.00 | 0.00 | 1016.1 | |
| 20260901061122 | 81 | 96 | 2.0 | 3.0 | 0.00 | 0.00 | 0.00 | 1016.1 | |
| 20260901060624 | 82 | 148 | 0.0 | 4.0 | 0.00 | 0.00 | 0.00 | 1016.0 | |
| 20260901060127 | 82 | 148 | 0.0 | 4.0 | 0.00 | 0.00 | 0.00 | 1015.9 | |
| 20260901055633 | 82 | 152 | 1.0 | 5.0 | 0.00 | 0.00 | 0.00 | 1015.8 | |
| 20260901055114 | 82 | 106 | 2.0 | 5.0 | 0.00 | 0.00 | 0.00 | 1015.8 | |
| 20260901054615 | 82 | 101 | 2.0 | 5.0 | 0.00 | 0.00 | 0.00 | 1015.7 | |
| 20260901054137 | 82 | 111 | 3.0 | 6.0 | 0.00 | 0.00 | 0.00 | 1015.7 | |
| 20260901053624 | 83 | 101 | 3.0 | 6.0 | 0.00 | 0.00 | 0.00 | 1015.5 | |
| 20260901053125 | 83 | 114 | 1.0 | 6.0 | 0.00 | 0.00 | 0.00 | 1015.5 | |
| 20260901052617 | 83 | 136 | 2.0 | 6.0 | 0.00 | 0.00 | 0.00 | 1015.5 | |
| 20260901052116 | 83 | 155 | 3.0 | 8.0 | 0.00 | 0.00 | 0.00 | 1015.5 | |
| 20260901051625 | 83 | 128 | 4.0 | 8.0 | 0.00 | 0.00 | 0.00 | 1015.5 | |
| 20260901051127 | 84 | 114 | 4.0 | 8.0 | 0.00 | 0.00 | 0.00 | 1015.5 | |
| 20260901050636 | 84 | 136 | 5.0 | 8.0 | 0.00 | 0.00 | 0.00 | 1015.5 | |
| 20260901050131 | 84 | 173 | 5.0 | 8.0 | 0.00 | 0.00 | 0.00 | 1015.5 | |
| 20260901045654 | 84 | 101 | 5.0 | 8.0 | 0.00 | 0.00 | 0.00 | 1015.4 | |
| 20260901045201 | 84 | 152 | 4.0 | 9.0 | 0.00 | 0.00 | 0.00 | 1015.4 | |
| 20260901044641 | 84 | 148 | 3.0 | 8.0 | 0.00 | 0.00 | 0.00 | 1015.3 | |
| 20260901044207 | 85 | 152 | 4.0 | 9.0 | 0.00 | 0.00 | 0.00 | 1015.4 | |
| 20260901043644 | 85 | 155 | 5.0 | 11.0 | 0.00 | 0.00 | 0.00 | 1015.4 | |
| 20260901043113 | 85 | 138 | 4.0 | 12.0 | 0.00 | 0.00 | 0.00 | 1015.3 | |
| 20260901042629 | 85 | 86 | 5.0 | 11.0 | 0.00 | 0.00 | 0.00 | 1015.3 | |
| 20260901041646 | 85 | 107 | 5.0 | 10.0 | 0.00 | 0.00 | 0.00 | 1015.2 | |
| 20260901041118 | 85 | 180 | 4.0 | 10.0 | 0.00 | 0.00 | 0.00 | 1015.3 | |
| 20260901040630 | 85 | 151 | 5.0 | 10.0 | 0.00 | 0.00 | 0.00 | 1015.3 | |
| 20260901040139 | 85 | 142 | 6.0 | 10.0 | 0.00 | 0.00 | 0.00 | 1015.3 | |
| 20260901035615 | 85 | 131 | 5.0 | 9.0 | 0.00 | 0.00 | 0.00 | 1015.1 | |
| 20260901035123 | 85 | 152 | 5.0 | 11.0 | 0.00 | 0.00 | 0.00 | 1015.0 | |
| 20260901034655 | 85 | 157 | 6.0 | 11.0 | 0.00 | 0.00 | 0.00 | 1014.9 | |
| 20260901034117 | 85 | 131 | 2.0 | 5.0 | 0.00 | 0.00 | 0.00 | 1015.0 | |
| 20260901033647 | 85 | 119 | 2.0 | 4.0 | 0.00 | 0.00 | 0.00 | 1015.0 | |
| 20260901033200 | 86 | 148 | 2.0 | 4.0 | 0.00 | 0.00 | 0.00 | 1014.9 | |
| 20260901032706 | 86 | 82 | 2.0 | 3.0 | 0.00 | 0.00 | 0.00 | 1014.8 | |
| 20260901032209 | 86 | 128 | 2.0 | 5.0 | 0.00 | 0.00 | 0.00 | 1014.7 | |
| 20260901031640 | 86 | 107 | 2.0 | 6.0 | 0.00 | 0.00 | 0.00 | 1014.7 | |
| 20260901031116 | 86 | 128 | 2.0 | 5.0 | 0.00 | 0.00 | 0.00 | 1014.7 | |
| 20260901030646 | 86 | 130 | 2.0 | 5.0 | 0.00 | 0.00 | 0.00 | 1014.7 | |
| 20260901030126 | 87 | 116 | 2.0 | 5.0 | 0.00 | 0.00 | 0.00 | 1014.6 | |
| 20260901025652 | 87 | 121 | 2.0 | 5.0 | 0.00 | 0.00 | 0.00 | 1014.5 | |
| 20260901025229 | 87 | 135 | 2.0 | 5.0 | 0.00 | 0.00 | 0.00 | 1014.4 | |
| 20260901024627 | 87 | 138 | 3.0 | 8.0 | 0.00 | 0.00 | 0.00 | 1014.3 | |
| 20260901024124 | 87 | 107 | 4.0 | 8.0 | 0.00 | 0.00 | 0.00 | 1014.3 | |
| 20260901023701 | 87 | 126 | 3.0 | 7.0 | 0.00 | 0.00 | 0.00 | 1014.1 | |
| 20260901023129 | 87 | 129 | 3.0 | 6.0 | 0.00 | 0.00 | 0.00 | 1014.0 | |
| 20260901022705 | 87 | 131 | 4.0 | 6.0 | 0.00 | 0.00 | 0.00 | 1013.9 | |
| 20260901022118 | 87 | 138 | 2.0 | 5.0 | 0.00 | 0.00 | 0.00 | 1013.9 | |
| 20260901021622 | 87 | 144 | 2.0 | 6.0 | 0.00 | 0.00 | 0.00 | 1013.8 | |
| 20260901021129 | 87 | 139 | 2.0 | 6.0 | 0.00 | 0.00 | 0.00 | 1013.7 | |
| 20260901020705 | 87 | 142 | 3.0 | 5.0 | 0.00 | 0.00 | 0.00 | 1013.7 | |
| 20260901020207 | 87 | 125 | 3.0 | 5.0 | 0.00 | 0.00 | 0.00 | 1013.6 | |
| 20260901015629 | 87 | 125 | 2.0 | 5.0 | 0.00 | 0.00 | 0.00 | 1013.5 | |
| 20260901015135 | 88 | 133 | 2.0 | 5.0 | 0.00 | 0.00 | 0.00 | 1013.6 | |
| 20260901014711 | 88 | 127 | 2.0 | 6.0 | 0.00 | 0.00 | 0.00 | 1013.5 | |
| 20260901014140 | 89 | 142 | 3.0 | 6.0 | 0.00 | 0.00 | 0.00 | 1013.5 | |
| 20260901013707 | 90 | 88 | 0.0 | 2.0 | 0.00 | 0.00 | 0.00 | 1013.4 | |
| 20260901013137 | 90 | 88 | 0.0 | 0.0 | 0.00 | 0.00 | 0.00 | 1013.3 | |
| 20260901012747 | 90 | 88 | 0.0 | 0.0 | 0.00 | 0.00 | 0.00 | 1013.3 | |
| 20260901012132 | 91 | 88 | 0.0 | 1.0 | 0.00 | 0.00 | 0.00 | 1013.2 | |
| 20260901011702 | 91 | 88 | 0.0 | 4.0 | 0.00 | 0.00 | 0.00 | 1013.2 | |
| 20260901011130 | 91 | 88 | 1.0 | 4.0 | 0.00 | 0.00 | 0.00 | 1013.1 | |
| 20260901010707 | 91 | 98 | 2.0 | 5.0 | 0.00 | 0.00 | 0.00 | 1013.1 | |
| 20260901010119 | 92 | 98 | 2.0 | 5.0 | 0.00 | 0.00 | 0.00 | 1013.1 | |
| 20260901005656 | 92 | 73 | 3.0 | 7.0 | 0.00 | 0.00 | 0.00 | 1013.1 | |
| 20260901005211 | 92 | 84 | 2.0 | 7.0 | 0.00 | 0.00 | 0.00 | 1013.1 | |
| 20260901004641 | 93 | 105 | 3.0 | 8.0 | 0.00 | 0.00 | 0.00 | 1013.1 | |
| 20260901004149 | 93 | 96 | 2.0 | 8.0 | 0.00 | 0.00 | 0.00 | 1013.1 | |
| 20260901003625 | 93 | 122 | 2.0 | 8.0 | 0.00 | 0.00 | 0.00 | 1013.1 | |
| 20260901003154 | 93 | 115 | 2.0 | 5.0 | 0.00 | 0.00 | 0.00 | 1013.0 | |
| 20260901002629 | 94 | 134 | 3.0 | 5.0 | 0.00 | 0.00 | 0.00 | 1013.0 | |
| 20260901002154 | 94 | 116 | 3.0 | 7.0 | 0.00 | 0.00 | 0.00 | 1013.0 | |
| 20260901001634 | 94 | 149 | 4.0 | 7.0 | 0.00 | 0.00 | 0.00 | 1012.9 | |
| 20260901001142 | 94 | 151 | 2.0 | 7.0 | 0.00 | 0.00 | 0.00 | 1012.9 | |
| 20260901000618 | 94 | 140 | 5.0 | 8.0 | 0.00 | 0.00 | 0.00 | 1012.9 | |
| 20260901000126 | 95 | 154 | 5.0 | 11.0 | 0.00 | 0.00 | 0.00 | 1012.8 | |
| 20260831235700 | 95 | 148 | 6.0 | 11.0 | 0.00 | 0.00 | 0.00 | 1012.8 | |
| 20260831235209 | 95 | 153 | 5.0 | 9.0 | 0.00 | 0.00 | 0.00 | 1012.7 | |
| 20260831234720 | 95 | 139 | 4.0 | 7.0 | 0.00 | 0.00 | 0.00 | 1012.7 | |
| 20260831234130 | 95 | 114 | 4.0 | 9.0 | 0.00 | 0.00 | 0.00 | 1012.8 | |
| 20260831233637 | 95 | 110 | 5.0 | 9.0 | 0.00 | 0.00 | 0.00 | 1012.8 | |
| 20260831233130 | 95 | 105 | 5.0 | 8.0 | 0.00 | 0.00 | 0.00 | 1012.8 | |
| 20260831232658 | 95 | 145 | 4.0 | 11.0 | 0.00 | 0.00 | 0.00 | 1012.8 | |
| 20260831232113 | 95 | 142 | 7.0 | 11.0 | 0.00 | 0.00 | 0.00 | 1012.7 | |
| 20260831231720 | 95 | 128 | 4.0 | 11.0 | 0.00 | 0.00 | 0.00 | 1012.8 | |
| 20260831231136 | 96 | 167 | 8.0 | 11.0 | 0.00 | 0.00 | 0.00 | 1012.9 | |
| 20260831230644 | 95 | 100 | 6.0 | 12.0 | 0.00 | 0.00 | 0.00 | 1012.8 | |
| 20260831230151 | 95 | 126 | 6.0 | 12.0 | 0.00 | 0.00 | 0.00 | 1012.9 | |
| 20260831225632 | 95 | 108 | 7.0 | 12.0 | 0.00 | 0.00 | 0.00 | 1013.0 | |
| 20260831225201 | 95 | 105 | 8.0 | 12.0 | 0.00 | 0.00 | 0.00 | 1012.9 | |
| 20260831224637 | 95 | 113 | 5.0 | 8.0 | 0.00 | 0.00 | 0.00 | 1012.9 | |
| 20260831224147 | 95 | 96 | 4.0 | 7.0 | 0.00 | 0.00 | 0.00 | 1012.9 | |
| 20260831223616 | 95 | 127 | 4.0 | 9.0 | 0.00 | 0.00 | 0.00 | 1012.9 | |
| 20260831223153 | 95 | 135 | 5.0 | 10.0 | 0.00 | 0.00 | 0.00 | 1013.1 | |
| 20260831222620 | 95 | 128 | 6.0 | 13.0 | 0.00 | 0.00 | 0.00 | 1013.1 | |
| 20260831222157 | 95 | 115 | 7.0 | 12.0 | 0.00 | 0.00 | 0.00 | 1013.1 | |
| 20260831221630 | 94 | 255 | 3.0 | 7.0 | 0.00 | 0.00 | 0.00 | 1013.1 | |
| 20260831221205 | 93 | 140 | 2.0 | 3.0 | 0.00 | 0.00 | 0.00 | 1013.1 | |
| 20260831220634 | 93 | 123 | 2.0 | 7.0 | 0.00 | 0.00 | 0.00 | 1013.3 | |
| 20260831220150 | 93 | 119 | 4.0 | 9.0 | 0.00 | 0.00 | 0.00 | 1013.4 | |
| 20260831215657 | 94 | 107 | 5.0 | 9.0 | 0.00 | 0.00 | 0.00 | 1013.5 | |
| 20260831215234 | 94 | 132 | 4.0 | 8.0 | 0.00 | 0.00 | 0.00 | 1013.5 | |
| 20260831214640 | 94 | 103 | 5.0 | 8.0 | 0.00 | 0.00 | 0.00 | 1013.5 | |
| 20260831214206 | 95 | 116 | 3.0 | 9.0 | 0.00 | 0.00 | 0.00 | 1013.6 | |
| 20260831213640 | 95 | 119 | 6.0 | 9.0 | 0.00 | 0.00 | 0.00 | 1013.6 | |
| 20260831213148 | 95 | 113 | 6.0 | 8.0 | 0.00 | 0.00 | 0.00 | 1013.6 | |
| 20260831212622 | 95 | 130 | 3.0 | 9.0 | 0.00 | 0.00 | 0.00 | 1013.6 | |
| 20260831212119 | 94 | 115 | 4.0 | 9.0 | 0.00 | 0.00 | 0.00 | 1013.7 | |
| 20260831211647 | 94 | 154 | 6.0 | 11.0 | 0.00 | 0.00 | 0.00 | 1013.8 | |
| 20260831211202 | 94 | 136 | 4.0 | 11.0 | 0.00 | 0.00 | 0.00 | 1013.9 | |
| 20260831210636 | 95 | 135 | 5.0 | 10.0 | 0.00 | 0.00 | 0.00 | 1013.9 | |
| 20260831210150 | 95 | 144 | 5.0 | 8.0 | 0.00 | 0.00 | 0.00 | 1014.1 | |
| 20260831205620 | 95 | 111 | 5.0 | 9.0 | 0.00 | 0.00 | 0.00 | 1014.2 | |
| 20260831205156 | 95 | 113 | 5.0 | 12.0 | 0.00 | 0.00 | 0.00 | 1014.2 | |
| 20260831204726 | 96 | 125 | 7.0 | 12.0 | 0.00 | 0.00 | 0.00 | 1014.3 | |
| 20260831204133 | 97 | 109 | 7.0 | 13.0 | 0.00 | 0.00 | 0.00 | 1014.3 |